Location: Krasnoyarskiy Pitomnik
(51.1333°N, 71.6167°E)
Time: 06:35:34
(UTC+00:00)

Transit 4A - Pass Details

Date: 14 April 2024
Orbit: 871 x 971 km, 66.8° (Epoch: 28 May)

Event Time Altitude Azimuth Distance (km) Brightness Sun altitude
Rises 16:10:51 0° 321° (NW) 3,480 12.6 -17.5°
Reaches altitude 10° 16:13:34 10° 330° (NNW) 2,533 11.3 -17.8°
Maximum altitude 16:18:55 36° 36° (NE) 1,361 8.8 -18.4°
Enters shadow 16:22:12 21° 89° (E) 1,889 9.1 -18.7°
